Location: Libas
(9.8833°N, 125.9833°E)
Time: 09:49:44
(UTC+00:00)

Envisat - Pass Details

Date: 25 January 2021
Orbit: 764 x 766 km, 98.1° (Epoch: 27 February)

Event Time Altitude Azimuth Distance (km) Brightness Sun altitude
Rises 21:25:09 0° 1° (N) 3,218 6.1 -8.6°
Reaches altitude 10° 21:27:32 10° 356° (N) 2,292 5.3 -8.1°
Maximum altitude 21:32:21 46° 283° (WNW) 1,014 3.2 -7.0°
Drops below altitude 10° 21:37:10 10° 210° (SSW) 2,293 5.4 -5.8°
Sets 21:39:33 0° 205° (SSW) 3,219 6.2 -5.3°
